ITY1600 LIML-LIEA

Flight info

Callsign ITY1600
Flight time 1h 3m
Altitude 31000
Route EKPAL DCT TINKU DCT GOVGO DCT ROMPO/N0396F190 L5 MINKA
Aircraft A320/M-SDE3FGHIRWY/LB1

Departure

Time 2026-05-09 14:41
Airport Milano Linate Airport (LIML)

Arrival

Time 2026-05-09 15:44
Airport Alghero-Fertilia Airport (LIEA)
Time Latitude Longitude Altitude Speed Heading
2026-05-09 14:21 45.45525 9.27891 360 ft 0 kts 89°
2026-05-09 14:35 45.45525 9.27892 360 ft 1 kts 89°
2026-05-09 14:35 45.45525 9.27921 361 ft 6 kts 89°
2026-05-09 14:36 45.45497 9.27975 362 ft 7 kts 165°
2026-05-09 14:36 45.45414 9.27977 360 ft 14 kts 180°
2026-05-09 14:36 45.45319 9.27929 362 ft 15 kts 206°
2026-05-09 14:36 45.45214 9.27872 360 ft 17 kts 188°
2026-05-09 14:37 45.45091 9.27877 361 ft 18 kts 176°
2026-05-09 14:37 45.44960 9.27895 364 ft 20 kts 169°
2026-05-09 14:37 45.44823 9.27941 360 ft 21 kts 175°
2026-05-09 14:37 45.44677 9.27956 360 ft 22 kts 176°
2026-05-09 14:38 45.44522 9.27974 362 ft 23 kts 175°
2026-05-09 14:38 45.44361 9.27990 360 ft 24 kts 176°
2026-05-09 14:38 45.44193 9.28008 360 ft 24 kts 175°
2026-05-09 14:38 45.44037 9.28025 364 ft 23 kts 175°
2026-05-09 14:39 45.43878 9.28042 364 ft 23 kts 175°
2026-05-09 14:39 45.43712 9.28060 362 ft 24 kts 175°
2026-05-09 14:39 45.43553 9.28077 361 ft 13 kts 175°
2026-05-09 14:39 45.43463 9.28060 361 ft 14 kts 219°
2026-05-09 14:40 45.43440 9.27928 361 ft 15 kts 265°
2026-05-09 14:40 45.43472 9.27819 362 ft 12 kts 344°
2026-05-09 14:40 45.43488 9.27817 363 ft 0 kts 355°
2026-05-09 14:40 45.43525 9.27812 365 ft 30 kts 355°
2026-05-09 14:41 45.44002 9.27759 360 ft 103 kts 356°
2026-05-09 14:41 45.44920 9.27659 366 ft 158 kts 355°
2026-05-09 14:41 45.46036 9.27525 922 ft 159 kts 353°
2026-05-09 14:41 45.47134 9.27383 1551 ft 162 kts 354°
2026-05-09 14:42 45.48312 9.27223 1908 ft 180 kts 356°
2026-05-09 14:42 45.49589 9.27612 2151 ft 203 kts 36°
2026-05-09 14:42 45.50404 9.29294 2460 ft 218 kts 81°
2026-05-09 14:42 45.50257 9.31431 2991 ft 221 kts 108°
2026-05-09 14:43 45.49807 9.33541 3721 ft 223 kts 109°
2026-05-09 14:43 45.49335 9.35655 4476 ft 225 kts 108°
2026-05-09 14:43 45.48841 9.37774 5282 ft 227 kts 114°
2026-05-09 14:43 45.47945 9.39627 5934 ft 230 kts 138°
2026-05-09 14:44 45.46550 9.40860 6325 ft 248 kts 159°
2026-05-09 14:44 45.44877 9.41752 6688 ft 270 kts 160°
2026-05-09 14:44 45.43092 9.42695 7356 ft 277 kts 160°
2026-05-09 14:44 45.41270 9.43659 8150 ft 281 kts 160°
2026-05-09 14:45 45.39431 9.44635 8960 ft 284 kts 160°
2026-05-09 14:45 45.37567 9.45625 9760 ft 288 kts 160°
2026-05-09 14:45 45.35685 9.46628 10520 ft 290 kts 160°
2026-05-09 14:45 45.33783 9.47643 11219 ft 294 kts 160°
2026-05-09 14:46 45.31855 9.48677 11922 ft 298 kts 160°
2026-05-09 14:46 45.29900 9.49729 12613 ft 302 kts 161°
2026-05-09 14:46 45.27944 9.50782 13289 ft 307 kts 161°
2026-05-09 14:46 45.25937 9.51857 13957 ft 311 kts 161°
2026-05-09 14:47 45.23898 9.52943 14538 ft 315 kts 161°
2026-05-09 14:47 45.21829 9.54044 15112 ft 320 kts 162°
2026-05-09 14:47 45.19711 9.55179 15390 ft 336 kts 161°
2026-05-09 14:47 45.17466 9.56404 15512 ft 356 kts 161°
2026-05-09 14:48 45.15097 9.57716 15645 ft 375 kts 161°
2026-05-09 14:48 45.12617 9.59101 15837 ft 390 kts 161°
2026-05-09 14:48 45.10069 9.60526 16302 ft 396 kts 161°
2026-05-09 14:48 45.07526 9.61968 16816 ft 401 kts 160°
2026-05-09 14:49 45.04948 9.63565 17338 ft 407 kts 158°
2026-05-09 14:49 45.02370 9.65266 17863 ft 412 kts 158°
2026-05-09 14:49 44.99769 9.67028 18372 ft 417 kts 157°
2026-05-09 14:49 44.97141 9.68811 18839 ft 421 kts 158°
2026-05-09 14:50 44.94494 9.70588 19370 ft 422 kts 158°
2026-05-09 14:50 44.91825 9.72352 19884 ft 425 kts 158°
2026-05-09 14:50 44.89172 9.74082 20367 ft 427 kts 159°
2026-05-09 14:50 44.86465 9.75833 20842 ft 430 kts 159°
2026-05-09 14:51 44.83737 9.77595 21300 ft 433 kts 159°
2026-05-09 14:51 44.80991 9.79371 21767 ft 435 kts 159°
2026-05-09 14:51 44.78234 9.81160 22207 ft 438 kts 159°
2026-05-09 14:51 44.75454 9.82964 22655 ft 440 kts 159°
2026-05-09 14:52 44.72672 9.84768 23160 ft 441 kts 159°
2026-05-09 14:52 44.69914 9.86682 23598 ft 446 kts 153°
2026-05-09 14:52 44.67343 9.89175 23935 ft 453 kts 144°
2026-05-09 14:52 44.65050 9.92242 24228 ft 459 kts 137°
2026-05-09 14:53 44.62856 9.95444 24522 ft 462 kts 137°
2026-05-09 14:53 44.60621 9.98694 24836 ft 464 kts 137°
2026-05-09 14:53 44.58374 10.01945 25180 ft 466 kts 137°
2026-05-09 14:53 44.56103 10.05214 25492 ft 468 kts 138°
2026-05-09 14:54 44.53821 10.08484 25805 ft 469 kts 139°
2026-05-09 14:54 44.51538 10.11747 26137 ft 470 kts 140°
2026-05-09 14:54 44.49074 10.14724 26463 ft 466 kts 149°
2026-05-09 14:54 44.46347 10.17129 26755 ft 462 kts 158°
2026-05-09 14:55 44.43424 10.18920 27021 ft 458 kts 165°
2026-05-09 14:55 44.40430 10.20483 27309 ft 459 kts 165°
2026-05-09 14:55 44.37426 10.22057 27504 ft 463 kts 165°
2026-05-09 14:55 44.34447 10.23629 27708 ft 466 kts 165°
2026-05-09 14:56 44.31414 10.25233 27941 ft 468 kts 165°
2026-05-09 14:56 44.28364 10.26849 28138 ft 470 kts 165°
2026-05-09 14:56 44.25308 10.28465 28396 ft 472 kts 165°
2026-05-09 14:56 44.22234 10.30089 28579 ft 474 kts 165°
2026-05-09 14:57 44.19145 10.31715 28851 ft 475 kts 165°
2026-05-09 14:57 44.16059 10.33338 29202 ft 473 kts 165°
2026-05-09 14:57 44.12988 10.34952 29503 ft 472 kts 166°
2026-05-09 14:57 44.09919 10.36564 29807 ft 471 kts 166°
2026-05-09 14:58 44.06853 10.38172 30130 ft 471 kts 166°
2026-05-09 14:58 44.03789 10.39775 30410 ft 469 kts 166°
2026-05-09 14:58 44.00737 10.41369 30703 ft 468 kts 167°
2026-05-09 14:58 43.97739 10.42932 30930 ft 467 kts 167°
2026-05-09 14:59 43.94696 10.44514 31082 ft 467 kts 167°
2026-05-09 14:59 43.91660 10.46094 31105 ft 467 kts 167°
2026-05-09 14:59 43.85585 10.49251 31079 ft 466 kts 167°
2026-05-09 15:00 43.79484 10.52129 31061 ft 457 kts 175°
2026-05-09 15:00 43.73295 10.52651 31042 ft 438 kts 193°
2026-05-09 15:01 43.64582 10.49895 31053 ft 429 kts 200°
2026-05-09 15:02 43.58804 10.47863 31058 ft 429 kts 200°
2026-05-09 15:02 43.53024 10.45834 31049 ft 428 kts 200°
2026-05-09 15:03 43.47249 10.43813 31057 ft 428 kts 200°
2026-05-09 15:03 43.41476 10.41795 31058 ft 428 kts 200°
2026-05-09 15:04 43.35740 10.39794 31058 ft 428 kts 200°
2026-05-09 15:06 43.12731 10.31972 31033 ft 428 kts 197°
2026-05-09 15:06 43.06883 10.30400 31036 ft 428 kts 197°
2026-05-09 15:07 43.01028 10.28851 31034 ft 428 kts 197°
2026-05-09 15:07 42.95186 10.27241 31022 ft 428 kts 197°
2026-05-09 15:08 42.89358 10.25594 31026 ft 427 kts 197°
2026-05-09 15:08 42.80666 10.23159 31029 ft 427 kts 197°
2026-05-09 15:10 42.57397 10.16744 31039 ft 426 kts 196°
2026-05-09 15:11 42.51632 10.15156 31024 ft 426 kts 196°
2026-05-09 15:11 42.45827 10.13552 31026 ft 425 kts 196°
2026-05-09 15:12 42.40027 10.11964 31023 ft 425 kts 196°
2026-05-09 15:12 42.34232 10.10387 31023 ft 425 kts 196°
2026-05-09 15:13 42.28430 10.08812 31027 ft 425 kts 196°
2026-05-09 15:13 42.22676 10.07245 31029 ft 425 kts 196°
2026-05-09 15:14 42.16878 10.05662 31021 ft 425 kts 196°
2026-05-09 15:14 42.11072 10.04076 31027 ft 425 kts 196°
2026-05-09 15:15 42.06254 10.02770 31029 ft 425 kts 196°
2026-05-09 15:15 41.99479 10.00932 31029 ft 425 kts 196°
2026-05-09 15:16 41.93721 9.99391 31024 ft 425 kts 195°
2026-05-09 15:16 41.87918 9.97835 31020 ft 425 kts 196°
2026-05-09 15:17 41.82121 9.96280 31011 ft 424 kts 196°
2026-05-09 15:17 41.79257 9.95514 30770 ft 415 kts 196°
2026-05-09 15:17 41.76449 9.94764 30517 ft 410 kts 196°
2026-05-09 15:18 41.73660 9.94015 30278 ft 408 kts 196°
2026-05-09 15:18 41.71011 9.92945 30036 ft 399 kts 208°
2026-05-09 15:18 41.68618 9.91040 29758 ft 395 kts 216°
2026-05-09 15:18 41.66352 9.89048 29485 ft 394 kts 216°
2026-05-09 15:19 41.64072 9.87039 29212 ft 392 kts 216°
2026-05-09 15:19 41.61798 9.85036 28937 ft 391 kts 216°
2026-05-09 15:19 41.59538 9.83044 28677 ft 389 kts 216°
2026-05-09 15:19 41.57283 9.81058 28408 ft 387 kts 215°
2026-05-09 15:20 41.55035 9.79081 28134 ft 386 kts 215°
2026-05-09 15:20 41.50571 9.75173 27607 ft 383 kts 215°
2026-05-09 15:20 41.48341 9.73224 27350 ft 381 kts 215°
2026-05-09 15:21 41.46130 9.71294 27100 ft 380 kts 215°
2026-05-09 15:21 41.43925 9.69366 26844 ft 378 kts 215°
2026-05-09 15:21 41.41758 9.67473 26587 ft 377 kts 215°
2026-05-09 15:21 41.39565 9.65558 26338 ft 376 kts 215°
2026-05-09 15:22 41.37384 9.63648 26099 ft 374 kts 215°
2026-05-09 15:22 41.35210 9.61751 25840 ft 373 kts 215°
2026-05-09 15:22 41.33049 9.59870 25660 ft 371 kts 214°
2026-05-09 15:22 41.30888 9.57992 25516 ft 370 kts 214°
2026-05-09 15:23 41.28730 9.56121 25367 ft 370 kts 214°
2026-05-09 15:23 41.26581 9.54256 25233 ft 369 kts 214°
2026-05-09 15:23 41.24459 9.52415 25080 ft 368 kts 214°
2026-05-09 15:23 41.22316 9.50557 24938 ft 368 kts 214°
2026-05-09 15:24 41.20182 9.48704 24796 ft 367 kts 214°
2026-05-09 15:24 41.18044 9.46852 24658 ft 366 kts 214°
2026-05-09 15:24 41.15913 9.45008 24529 ft 365 kts 214°
2026-05-09 15:24 41.13785 9.43167 24391 ft 364 kts 216°
2026-05-09 15:25 41.11907 9.40960 24247 ft 361 kts 231°
2026-05-09 15:25 41.10555 9.38154 24108 ft 362 kts 239°
2026-05-09 15:25 41.09318 9.35250 23954 ft 362 kts 239°
2026-05-09 15:26 41.06897 9.29471 23684 ft 360 kts 240°
2026-05-09 15:26 41.05685 9.26572 23544 ft 359 kts 239°
2026-05-09 15:26 41.04468 9.23679 23371 ft 359 kts 239°
2026-05-09 15:26 41.03248 9.20795 23213 ft 358 kts 239°
2026-05-09 15:27 41.02027 9.17932 23052 ft 357 kts 239°
2026-05-09 15:27 41.00808 9.15078 22891 ft 356 kts 239°
2026-05-09 15:27 40.99592 9.12224 22664 ft 354 kts 239°
2026-05-09 15:27 40.98401 9.09422 22328 ft 347 kts 239°
2026-05-09 15:28 40.97229 9.06659 21921 ft 342 kts 239°
2026-05-09 15:28 40.96073 9.03932 21510 ft 337 kts 239°
2026-05-09 15:28 40.94944 9.01284 21123 ft 333 kts 239°
2026-05-09 15:28 40.93812 8.98636 20718 ft 329 kts 239°
2026-05-09 15:29 40.92693 8.96020 20324 ft 325 kts 239°
2026-05-09 15:29 40.91583 8.93428 19905 ft 322 kts 239°
2026-05-09 15:29 40.90484 8.90860 19504 ft 319 kts 239°
2026-05-09 15:29 40.89398 8.88321 19089 ft 316 kts 239°
2026-05-09 15:30 40.88319 8.85799 18690 ft 314 kts 239°
2026-05-09 15:30 40.87244 8.83294 18287 ft 313 kts 239°
2026-05-09 15:30 40.86184 8.80826 17853 ft 311 kts 239°
2026-05-09 15:30 40.85123 8.78356 17429 ft 308 kts 239°
2026-05-09 15:31 40.84068 8.75901 17030 ft 306 kts 239°
2026-05-09 15:31 40.83025 8.73470 16636 ft 303 kts 239°
2026-05-09 15:31 40.81988 8.71060 16260 ft 301 kts 238°
2026-05-09 15:31 40.80954 8.68661 15864 ft 300 kts 238°
2026-05-09 15:32 40.79923 8.66272 15476 ft 299 kts 238°
2026-05-09 15:32 40.78896 8.63897 15090 ft 297 kts 238°
2026-05-09 15:32 40.77876 8.61539 14711 ft 295 kts 238°
2026-05-09 15:32 40.76862 8.59193 14337 ft 294 kts 238°
2026-05-09 15:33 40.75861 8.56882 13957 ft 294 kts 238°
2026-05-09 15:33 40.74850 8.54546 13558 ft 293 kts 238°
2026-05-09 15:33 40.73842 8.52219 13150 ft 291 kts 238°
2026-05-09 15:33 40.72842 8.49910 12761 ft 289 kts 238°
2026-05-09 15:34 40.71849 8.47621 12372 ft 287 kts 238°
2026-05-09 15:34 40.70860 8.45347 11980 ft 285 kts 238°
2026-05-09 15:34 40.69876 8.43089 11573 ft 284 kts 238°
2026-05-09 15:34 40.68893 8.40834 11180 ft 283 kts 238°
2026-05-09 15:35 40.67916 8.38594 10784 ft 282 kts 238°
2026-05-09 15:35 40.66940 8.36354 10390 ft 282 kts 238°
2026-05-09 15:35 40.65977 8.34142 10211 ft 273 kts 237°
2026-05-09 15:35 40.64917 8.32130 10022 ft 263 kts 223°
2026-05-09 15:36 40.63466 8.30758 9973 ft 261 kts 205°
2026-05-09 15:36 40.61719 8.30132 9901 ft 263 kts 186°
2026-05-09 15:36 40.59896 8.30333 9610 ft 265 kts 172°
2026-05-09 15:36 40.58105 8.30850 8979 ft 262 kts 170°
2026-05-09 15:37 40.56337 8.31391 8444 ft 259 kts 169°
2026-05-09 15:37 40.54586 8.31936 7919 ft 259 kts 169°
2026-05-09 15:37 40.52833 8.32482 7397 ft 259 kts 168°
2026-05-09 15:37 40.51050 8.32896 6937 ft 261 kts 178°
2026-05-09 15:38 40.49248 8.32630 6461 ft 263 kts 194°
2026-05-09 15:38 40.47540 8.31709 5974 ft 265 kts 202°
2026-05-09 15:38 40.45962 8.30752 5900 ft 241 kts 202°
2026-05-09 15:38 40.44482 8.29859 5847 ft 228 kts 202°
2026-05-09 15:39 40.43062 8.28967 5765 ft 223 kts 209°
2026-05-09 15:39 40.42067 8.27472 5662 ft 220 kts 245°
2026-05-09 15:39 40.41944 8.25481 5363 ft 228 kts 284°
2026-05-09 15:39 40.42574 8.23541 4969 ft 234 kts 293°
2026-05-09 15:40 40.43264 8.21601 4568 ft 234 kts 294°
2026-05-09 15:40 40.44232 8.19932 4175 ft 229 kts 326°
2026-05-09 15:40 40.45644 8.19171 3836 ft 222 kts 358°
2026-05-09 15:40 40.47138 8.19438 3502 ft 215 kts 28°
2026-05-09 15:41 40.48500 8.20252 3170 ft 216 kts 30°
2026-05-09 15:41 40.49851 8.21062 2831 ft 211 kts 30°
2026-05-09 15:41 40.51171 8.21850 2535 ft 205 kts 30°
2026-05-09 15:41 40.52455 8.22616 2255 ft 200 kts 30°
2026-05-09 15:42 40.53684 8.23348 1958 ft 188 kts 30°
2026-05-09 15:42 40.54842 8.24038 1700 ft 177 kts 31°
2026-05-09 15:42 40.55905 8.24670 1478 ft 161 kts 30°
2026-05-09 15:42 40.56884 8.25253 1253 ft 150 kts 30°
2026-05-09 15:43 40.57812 8.25814 986 ft 144 kts 30°
2026-05-09 15:43 40.58707 8.26364 781 ft 142 kts 28°
2026-05-09 15:43 40.59613 8.26906 589 ft 143 kts 27°
2026-05-09 15:43 40.60514 8.27449 421 ft 142 kts 27°
2026-05-09 15:44 40.61414 8.27992 243 ft 142 kts 27°
2026-05-09 15:44 40.62308 8.28531 93 ft 135 kts 28°
2026-05-09 15:44 40.62832 8.28854 91 ft 109 kts 24°
2026-05-09 15:44 40.63292 8.29127 98 ft 49 kts 24°
2026-05-09 15:45 40.63638 8.29333 98 ft 28 kts 24°
2026-05-09 15:45 40.63778 8.29489 99 ft 20 kts 55°
2026-05-09 15:45 40.63815 8.29569 101 ft 8 kts 71°
2026-05-09 15:45 40.63800 8.29631 101 ft 9 kts 138°
2026-05-09 15:46 40.63750 8.29641 101 ft 12 kts 187°
2026-05-09 15:46 40.63663 8.29595 99 ft 15 kts 204°
2026-05-09 15:46 40.63558 8.29534 95 ft 18 kts 204°
2026-05-09 15:46 40.63438 8.29463 95 ft 20 kts 203°
2026-05-09 15:47 40.63300 8.29476 92 ft 19 kts 169°
2026-05-09 15:47 40.63200 8.29457 95 ft 15 kts 204°
2026-05-09 15:47 40.63136 8.29460 91 ft 7 kts 114°
2026-05-09 15:47 40.63129 8.29479 92 ft 1 kts 114°
2026-05-09 15:48 40.63128 8.29484 91 ft 0 kts 114°